User: anonymous
Location: Caltech
(34.1382°N, 118.1253°W)
Time: 14:05:50
(UTC-07:00)
Language:

HST - Orbit

View from above orbital plane
View from above orbital plane
View from above satellite
View from above satellite

Ground track
Ground track

The orbit data is extracted from the following two-line orbital elements,

1 20580U 90037B   14113.54721914  .00004940  00000-0  32566-3 0  4905
2 20580 028.4710 036.2915 0002875 061.5833 298.5027 15.05238947116479
Epoch (UTC): 23 April 2014 13:07:59
Eccentricity: 0.0002875
inclination: 28.4710°
perigee height: 549 km
apogee height: 553 km
right ascension of ascending node: 36.2915°
argument of perigee: 61.5833°
revolutions per day: 15.05238947
mean anomaly at epoch: 298.5027°
orbit number at epoch: 11647

The dashed part of the orbit path shows where the satellite is in the earth's shadow,  

DLR